Location: The Saddle
(36.8333°N, 80.3417°W)
Time: 17:17:48
(UTC-05:00)

Vanguard 1 - Visible Passes

Search period start: 30 January 2023 00:00
Search period end: 09 February 2023 00:00
Orbit: 649 x 3831 km, 34.2° (Epoch: 30 January)

Date Brightness Start Highest point End Pass type
(mag) Time Alt. Az. Time Alt. Az. Time Alt. Az.
30 Jan 11.8 04:50:21 23° S 04:54:22 37° SE 05:05:26 10° E visible
31 Jan 11.6 05:10:11 25° SSW 05:14:36 47° SSE 05:26:54 10° E visible
01 Feb 12.7 03:17:16 14° ESE 03:17:16 14° ESE 03:20:15 10° E visible
01 Feb 11.4 05:29:58 23° SW 05:34:59 58° SSE 05:48:16 10° E visible
02 Feb 12.2 03:37:00 22° SE 03:37:00 22° SE 03:42:31 10° E visible
02 Feb 11.3 05:49:42 19° WSW 05:55:32 67° SSE 06:09:37 10° E visible
03 Feb 11.7 03:56:42 31° SE 03:56:42 31° SE 04:04:07 10° E visible
03 Feb 11.3 06:09:24 15° WSW 06:16:13 74° SSE 06:30:59 10° E visible
04 Feb 11.2 04:16:21 42° SE 04:16:21 42° SE 04:25:29 10° E visible
04 Feb 11.4 06:29:03 10° W 06:36:58 78° S 06:52:22 10° E visible
05 Feb 10.7 04:35:58 53° S 04:36:30 54° SSE 04:46:43 10° E visible
05 Feb 11.5 06:49:32 10° W 06:57:46 79° S 07:13:45 10° E visible
06 Feb 10.5 04:55:34 54° SSW 04:57:00 64° SSE 05:07:55 10° E visible
07 Feb 12.7 03:02:27 14° E 03:02:27 14° E 03:03:46 10° E visible
07 Feb 10.6 05:15:08 44° WSW 05:17:35 72° S 05:29:08 10° E visible
08 Feb 12.3 03:22:00 21° E 03:22:00 21° E 03:25:00 10° E visible
08 Feb 10.8 05:34:41 33° WSW 05:38:15 76° S 05:50:23 10° E visible
